Nampa, ID

2:06 PM MST on February 24, 2017 (GMT -0700)
Nampa

Weather History for KMAN - February, 2013

Change the Weather History Date:

Saturday, February 23, 2013

  Actual Average (KBOI) Record (KBOI)
Temperature  
Mean Temperature 36 °F -  
Max Temperature 41 °F 48 °F 64 °F (1995)
Min Temperature 30 °F 30 °F 7 °F (1894)
Degree Days  
Heating Degree Days 30    
Moisture  
Dew Point 28 °F    
Average Humidity 76    
Maximum Humidity 100    
Minimum Humidity 49    
Precipitation  
Precipitation 0.16 in - - ()
Sea Level Pressure  
Sea Level Pressure 30.02 in    
Wind  
Wind Speed 11 mph (NW)    
Max Wind Speed 18 mph    
Max Gust Speed 33 mph    
Visibility 9 miles    
Events      
Averages and records for this station are not official NWS values.
T = Trace of Precipitation, MM = Missing Value Source: NWS Daily Summary

Daily Weather History Graph

Daily Weather History Graph

Search for Another Location

Airport or City:

Trip Planner

Search our weather history database for the weather conditions in past years. The results will help you decide how hot, cold, wet, or windy it might be!

Date:

Astronomy

Feb. 23, 2013 Rise Set
Actual Time 7:31 AM MST 6:27 PM MST
Civil Twilight 7:02 AM MST 6:56 PM MST
Nautical Twilight 6:29 AM MST 7:29 PM MST
Astronomical Twilight 5:56 AM MST 8:03 PM MST
Moon 4:40 PM MST (2/23) 5:59 AM MST (2/23)
Length of Visible Light 11h 53m
Length of Day
10h 55m
Waxing Gibbous, 95% of the Moon is Illuminated
Feb 23
Waxing Gibbous
Feb 25
Full
Mar 4
Last Quarter
Mar 11
New
Mar 19
First Quarter

Hourly Weather History & Observations

Time (MST) Temp. Windchill Dew Point Humidity Pressure Visibility Wind Dir Wind Speed Gust Speed Precip Events Conditions
12:15 AM 37.4 °F 30.3 °F 37.4 °F 100% 29.81 in 10.0 mi SE 10.4 mph - N/A   Overcast
12:35 AM 37.4 °F 29.8 °F 37.4 °F 100% 29.79 in 10.0 mi SE 11.5 mph 17.3 mph N/A   Overcast
12:55 AM 37.4 °F 29.8 °F 37.4 °F 100% 29.78 in 7.0 mi SE 11.5 mph - N/A   Overcast
1:15 AM 37.4 °F 29.8 °F 37.4 °F 100% 29.78 in 5.0 mi SSE 11.5 mph 16.1 mph 0.01 in   Overcast
1:35 AM 37.4 °F 30.8 °F 37.4 °F 100% 29.78 in 3.0 mi SSW 9.2 mph 17.3 mph 0.05 in   Mostly Cloudy
1:55 AM 35.6 °F 25.2 °F 35.6 °F 100% 29.86 in 1.2 mi NW 18.4 mph 33.4 mph 0.10 in   Mostly Cloudy
2:15 AM 32.0 °F 23.0 °F 32.0 °F 100% 29.84 in 0.5 mi NW 11.5 mph 17.3 mph 0.02 in   Overcast
2:55 AM 32.0 °F 24.8 °F 32.0 °F 100% 29.86 in 2.0 mi WNW 8.1 mph - 0.05 in   Overcast
3:15 AM 32.0 °F 28.7 °F 32.0 °F 100% 29.85 in 1.5 mi NW 3.5 mph - 0.01 in   Overcast
3:35 AM 32.0 °F 26.4 °F 32.0 °F 100% 29.86 in 5.0 mi WNW 5.8 mph - 0.01 in   Overcast
3:55 AM 32.0 °F 24.8 °F 32.0 °F 100% 29.88 in 10.0 mi WNW 8.1 mph - 0.01 in   Overcast
4:15 AM 32.0 °F 22.1 °F 32.0 °F 100% 29.88 in 10.0 mi NW 13.8 mph 19.6 mph N/A   Overcast
4:35 AM 33.8 °F 24.3 °F 33.8 °F 100% 29.88 in 10.0 mi NW 13.8 mph 20.7 mph N/A   Overcast
4:55 AM 33.8 °F 24.3 °F 32.0 °F 93% 29.89 in 10.0 mi NW 13.8 mph 25.3 mph N/A   Mostly Cloudy
5:15 AM 32.0 °F 21.6 °F 32.0 °F 100% 29.89 in 10.0 mi NW 15.0 mph 23.0 mph N/A   Mostly Cloudy
5:35 AM 32.0 °F 22.1 °F 28.4 °F 87% 29.91 in 10.0 mi NW 13.8 mph 19.6 mph N/A   Overcast
5:55 AM 32.0 °F 22.5 °F 28.4 °F 87% 29.92 in 10.0 mi NW 12.7 mph - N/A   Overcast
6:15 AM 32.0 °F 23.6 °F 30.2 °F 93% 29.94 in 10.0 mi NW 10.4 mph - N/A   Mostly Cloudy
6:35 AM 32.0 °F 24.2 °F 30.2 °F 93% 29.95 in 10.0 mi NW 9.2 mph - N/A   Overcast
6:55 AM 32.0 °F 22.5 °F 26.6 °F 80% 29.96 in 10.0 mi NW 12.7 mph 16.1 mph N/A   Overcast
7:15 AM 32.0 °F 23.6 °F 26.6 °F 80% 29.97 in 9.0 mi WNW 10.4 mph 17.3 mph N/A   Mostly Cloudy
7:35 AM 30.2 °F 21.3 °F 28.4 °F 93% 29.97 in 9.0 mi WNW 10.4 mph - N/A   Scattered Clouds
7:55 AM 32.0 °F 21.6 °F 26.6 °F 80% 29.98 in 10.0 mi WNW 15.0 mph 19.6 mph N/A   Clear
8:15 AM 32.0 °F 22.5 °F 26.6 °F 80% 29.99 in 10.0 mi WNW 12.7 mph - N/A   Clear
8:35 AM 32.0 °F 22.1 °F 26.6 °F 80% 30.00 in 10.0 mi WNW 13.8 mph 17.3 mph N/A   Scattered Clouds
8:55 AM 32.0 °F 22.5 °F 24.8 °F 75% 30.01 in 10.0 mi WNW 12.7 mph 18.4 mph N/A   Partly Cloudy
9:15 AM 32.0 °F 24.2 °F 24.8 °F 75% 30.02 in 10.0 mi NW 9.2 mph 18.4 mph N/A   Clear
9:35 AM 32.0 °F 23.6 °F 24.8 °F 75% 30.04 in 10.0 mi WNW 10.4 mph - N/A   Scattered Clouds
9:55 AM 32.0 °F 23.6 °F 24.8 °F 75% 30.04 in 10.0 mi NW 10.4 mph 18.4 mph N/A   Overcast
10:35 AM 35.6 °F 27.1 °F 24.8 °F 65% 30.05 in 10.0 mi NW 12.7 mph - N/A   Mostly Cloudy
10:55 AM 35.6 °F 26.6 °F 24.8 °F 65% 30.05 in 10.0 mi NW 13.8 mph - N/A   Overcast
11:15 AM 35.6 °F 29.2 °F 24.8 °F 65% 30.06 in 10.0 mi NNW 8.1 mph - N/A   Mostly Cloudy
11:35 AM 35.6 °F 27.1 °F 24.8 °F 65% 30.06 in 10.0 mi NW 12.7 mph 17.3 mph N/A   Partly Cloudy
11:55 AM 37.4 °F 28.9 °F 24.8 °F 60% 30.06 in 10.0 mi NW 13.8 mph 23.0 mph N/A   Clear
12:15 PM 37.4 °F 27.8 °F 26.6 °F 65% 30.05 in 10.0 mi WNW 17.3 mph - N/A   Partly Cloudy
12:35 PM 37.4 °F 28.2 °F 26.6 °F 65% 30.05 in 10.0 mi WNW 16.1 mph 21.9 mph N/A   Mostly Cloudy
12:55 PM 37.4 °F 28.9 °F 23.0 °F 56% 30.05 in 10.0 mi NW 13.8 mph - N/A   Mostly Cloudy
1:15 PM 39.2 °F 30.8 °F 24.8 °F 56% 30.04 in 10.0 mi WNW 15.0 mph 24.2 mph N/A   Overcast
1:35 PM 39.2 °F 30.8 °F 24.8 °F 56% 30.03 in 10.0 mi NNW 15.0 mph 21.9 mph N/A   Overcast
1:55 PM 39.2 °F 31.2 °F 24.8 °F 56% 30.03 in 10.0 mi NW 13.8 mph 21.9 mph N/A   Mostly Cloudy
2:15 PM 39.2 °F 32.5 °F 24.8 °F 56% 30.03 in 10.0 mi NW 10.4 mph 17.3 mph N/A   Overcast
2:35 PM 41.0 °F 33.5 °F 23.0 °F 49% 30.03 in 10.0 mi NW 13.8 mph 20.7 mph N/A   Overcast
2:55 PM 41.0 °F 33.1 °F 23.0 °F 49% 30.04 in 10.0 mi NW 15.0 mph 23.0 mph N/A   Overcast
3:15 PM 39.2 °F 32.0 °F 24.8 °F 56% 30.04 in 10.0 mi North 11.5 mph 18.4 mph N/A   Overcast
3:35 PM 39.2 °F 31.6 °F 24.8 °F 56% 30.05 in 10.0 mi North 12.7 mph 19.6 mph N/A   Overcast
3:55 PM 41.0 °F 33.1 °F 24.8 °F 53% 30.05 in 10.0 mi NNW 15.0 mph - N/A   Overcast
4:15 PM 39.2 °F 31.2 °F 24.8 °F 56% 30.06 in 9.0 mi NNW 13.8 mph 18.4 mph N/A   Mostly Cloudy
4:35 PM 39.2 °F 32.5 °F 24.8 °F 56% 30.07 in 10.0 mi NNW 10.4 mph 16.1 mph N/A   Mostly Cloudy
4:55 PM 39.2 °F 32.5 °F 24.8 °F 56% 30.07 in 10.0 mi NNW 10.4 mph 18.4 mph N/A   Partly Cloudy
5:15 PM 39.2 °F 33.0 °F 24.8 °F 56% 30.08 in 10.0 mi NNW 9.2 mph - N/A   Clear
5:55 PM 39.2 °F 33.6 °F 24.8 °F 56% 30.10 in 10.0 mi NNW 8.1 mph - N/A   Clear
6:15 PM 37.4 °F 33.8 °F 26.6 °F 65% 30.11 in 10.0 mi NNW 4.6 mph - N/A   Partly Cloudy
6:35 PM 37.4 °F 32.8 °F 26.6 °F 65% 30.12 in 10.0 mi NW 5.8 mph - N/A   Scattered Clouds
6:55 PM 37.4 °F 33.8 °F 28.4 °F 70% 30.13 in 10.0 mi NW 4.6 mph - N/A   Mostly Cloudy
7:15 PM 35.6 °F 31.7 °F 28.4 °F 75% 30.14 in 10.0 mi NW 4.6 mph - N/A   Partly Cloudy
7:35 PM 35.6 °F 30.7 °F 28.4 °F 75% 30.15 in 10.0 mi NW 5.8 mph - N/A   Scattered Clouds
7:55 PM 35.6 °F 28.6 °F 26.6 °F 70% 30.15 in 10.0 mi NW 9.2 mph - N/A   Overcast
8:15 PM 35.6 °F 28.6 °F 26.6 °F 70% 30.16 in 10.0 mi NW 9.2 mph - N/A   Overcast
8:35 PM 35.6 °F 28.6 °F 26.6 °F 70% 30.17 in 10.0 mi NW 9.2 mph - N/A   Overcast
8:55 PM 35.6 °F 29.9 °F 28.4 °F 75% 30.17 in 10.0 mi NNW 6.9 mph - N/A   Overcast
9:15 PM 35.6 °F 28.6 °F 28.4 °F 75% 30.18 in 10.0 mi NW 9.2 mph - N/A   Overcast
9:35 PM 35.6 °F 28.0 °F 28.4 °F 75% 30.19 in 10.0 mi NW 10.4 mph - N/A   Overcast
9:55 PM 35.6 °F 29.2 °F 28.4 °F 75% 30.20 in 10.0 mi NW 8.1 mph - N/A   Overcast
10:15 PM 35.6 °F 28.6 °F 28.4 °F 75% 30.21 in 10.0 mi NW 9.2 mph - N/A   Overcast
10:35 PM 33.8 °F 25.8 °F 28.4 °F 81% 30.21 in 10.0 mi NW 10.4 mph - N/A   Overcast
10:55 PM 33.8 °F 26.4 °F 26.6 °F 75% 30.21 in 10.0 mi NW 9.2 mph - N/A   Mostly Cloudy
11:15 PM 33.8 °F 26.4 °F 26.6 °F 75% 30.22 in 10.0 mi NW 9.2 mph - N/A   Clear
11:35 PM 32.0 °F 24.2 °F 26.6 °F 80% 30.22 in 10.0 mi NW 9.2 mph - N/A   Scattered Clouds
11:55 PM 32.0 °F 24.8 °F 26.6 °F 80% 30.23 in 10.0 mi NW 8.1 mph - N/A   Mostly Cloudy